TimeMDT,TemperatureF,Dew PointF,Humidity,Sea Level PressureIn,VisibilityMPH,Wind Direction,Wind SpeedMPH,Gust SpeedMPH,PrecipitationIn,Events,Conditions,WindDirDegrees,DateUTC
12:51 AM,64.9,36.0,34,29.86,10.0,SSE,5.8,-,N/A,,Clear,150,2012-10-09 06:51:00
1:51 AM,73.4,28.4,19,30.02,10.0,West,11.5,17.3,N/A,,Clear,280,2012-10-09 07:51:00
2:51 AM,73.9,28.0,18,29.81,10.0,West,12.7,24.2,N/A,,Clear,260,2012-10-09 08:51:00
3:51 AM,73.9,28.0,18,29.80,10.0,West,15.0,-,N/A,,Clear,270,2012-10-09 09:51:00
4:51 AM,70.0,28.9,22,29.82,10.0,East,4.6,-,N/A,,Partly Cloudy,90,2012-10-09 10:51:00
5:51 AM,68.0,28.4,23,30.04,10.0,Calm,Calm,-,N/A,,Partly Cloudy,0,2012-10-09 11:51:00
6:51 AM,63.0,30.9,30,29.87,10.0,Calm,Calm,-,N/A,,Partly Cloudy,0,2012-10-09 12:51:00
7:51 AM,66.2,32.0,28,30.06,10.0,South,3.5,-,N/A,,Partly Cloudy,190,2012-10-09 13:51:00
8:51 AM,70.0,35.1,28,29.91,10.0,South,3.5,-,N/A,,Partly Cloudy,190,2012-10-09 14:51:00
9:51 AM,77.0,34.0,21,29.91,10.0,SSW,5.8,-,N/A,,Partly Cloudy,210,2012-10-09 15:51:00
10:51 AM,79.0,33.1,19,29.91,10.0,Calm,Calm,-,N/A,,Partly Cloudy,0,2012-10-09 16:51:00
11:51 AM,82.0,33.1,17,29.88,10.0,WNW,10.4,-,N/A,,Partly Cloudy,300,2012-10-09 17:51:00
12:51 PM,82.0,34.0,18,29.86,10.0,WNW,4.6,-,N/A,,Partly Cloudy,300,2012-10-09 18:51:00
1:51 PM,84.0,32.0,15,29.81,10.0,West,8.1,-,N/A,,Partly Cloudy,260,2012-10-09 19:51:00
2:51 PM,86.0,30.0,13,29.78,10.0,West,12.7,20.7,N/A,,Partly Cloudy,260,2012-10-09 20:51:00
3:51 PM,86.0,27.0,12,29.77,10.0,WSW,10.4,-,N/A,,Partly Cloudy,240,2012-10-09 21:51:00
4:51 PM,84.9,25.0,11,29.78,10.0,WSW,12.7,-,N/A,,Partly Cloudy,250,2012-10-09 22:51:00
6:51 PM,81.0,24.1,12,29.81,10.0,WSW,8.1,-,N/A,,Partly Cloudy,240,2012-10-10 00:51:00
7:51 PM,77.0,24.1,14,29.82,10.0,SW,4.6,-,N/A,,Clear,220,2012-10-10 01:51:00
8:51 PM,75.0,26.1,16,29.84,10.0,SSW,4.6,-,N/A,,Clear,210,2012-10-10 02:51:00
9:51 PM,70.0,30.9,24,29.85,10.0,South,4.6,-,N/A,,Clear,170,2012-10-10 03:51:00
10:51 PM,68.0,33.1,27,29.85,10.0,Calm,Calm,-,N/A,,Clear,0,2012-10-10 04:51:00
11:51 PM,66.9,32.0,27,29.85,10.0,SSE,3.5,-,N/A,,Clear,150,2012-10-10 05:51:00